Cheyenne, WY

7:45 AM MST on February 23, 2017 (GMT -0700)
Cheyenne

Weather History for KCYS - November, 2013

Change the Weather History Date:

Monday, November 18, 2013

  Actual Average Record
Temperature  
Mean Temperature 41 °F 34 °F  
Max Temperature 58 °F 45 °F 71 °F (2008)
Min Temperature 23 °F 23 °F -8 °F (1937)
Degree Days  
Heating Degree Days 24 31  
Month to date heating degree days 451 488  
Since 1 July heating degree days 1309 1347  
Cooling Degree Days 0 0  
Month to date cooling degree days 0 0  
Year to date cooling degree days 520 348  
Moisture  
Dew Point 15 °F    
Average Humidity 39    
Maximum Humidity 60    
Minimum Humidity 17    
Precipitation  
Precipitation 0.00 in 0.02 in 0.57 in (1907)
Month to date precipitation 0.03 0.36  
Year to date precipitation 17.55 15.22  
Snow  
Snow 0.00 in 0.30 in 7.00 in (1907)
Month to date snowfall 0.2 4.5  
Since 1 July snowfall 12.7 10.8  
Snow Depth 0.00 in    
Sea Level Pressure  
Sea Level Pressure 30.04 in    
Wind  
Wind Speed 13 mph (WSW)    
Max Wind Speed 38 mph    
Max Gust Speed 46 mph    
Visibility 10 miles    
Events      
T = Trace of Precipitation, MM = Missing Value Source: NWS Daily Summary

Daily Weather History Graph

Daily Weather History Graph

Search for Another Location

Airport or City:

Trip Planner

Search our weather history database for the weather conditions in past years. The results will help you decide how hot, cold, wet, or windy it might be!

Date:

Astronomy

Nov. 18, 2013 Rise Set
Actual Time 6:51 AM MST 4:37 PM MST
Civil Twilight 6:21 AM MST 5:07 PM MST
Nautical Twilight 5:47 AM MST 5:40 PM MST
Astronomical Twilight 5:14 AM MST 6:13 PM MST
Moon 5:41 PM MST (11/18) 7:42 AM MST (11/18)
Length of Visible Light 10h 46m
Length of Day
9h 46m
Full, 99% of the Moon is Illuminated
Nov 18
Full
Nov 25
Last Quarter
Dec 2
New
Dec 9
First Quarter
Dec 17
Full

Hourly Weather History & Observations

Time (MST) Temp. Windchill Dew Point Humidity Pressure Visibility Wind Dir Wind Speed Gust Speed Precip Events Conditions
12:53 AM 28.0 °F 24.2 °F 12.9 °F 53% 30.10 in 10.0 mi SSE 3.5 mph - N/A   Clear
1:53 AM 25.0 °F 18.1 °F 12.0 °F 58% 30.10 in 10.0 mi SSW 5.8 mph - N/A   Clear
2:53 AM 25.0 °F 20.7 °F 12.9 °F 60% 30.07 in 10.0 mi South 3.5 mph - N/A   Clear
3:53 AM 25.0 °F - 12.9 °F 60% 30.10 in 10.0 mi Calm Calm - N/A   Clear
4:53 AM 35.1 °F 25.9 °F 19.0 °F 52% 30.06 in 10.0 mi WSW 13.8 mph - N/A   Clear
5:53 AM 37.0 °F 29.3 °F 19.0 °F 48% 30.04 in 10.0 mi SW 11.5 mph - N/A   Clear
6:53 AM 43.0 °F 32.7 °F 14.0 °F 31% 30.04 in 10.0 mi West 28.8 mph 46.0 mph N/A   Clear
7:53 AM 46.0 °F 39.6 °F 14.0 °F 28% 30.08 in 10.0 mi WSW 15.0 mph - N/A   Clear
8:53 AM 46.0 °F 39.0 °F 12.0 °F 25% 30.08 in 10.0 mi WSW 17.3 mph 26.5 mph N/A   Clear
9:53 AM 50.0 °F - 12.9 °F 23% 30.06 in 10.0 mi West 23.0 mph 35.7 mph N/A   Clear
10:53 AM 52.0 °F - 10.9 °F 19% 30.04 in 10.0 mi West 27.6 mph 42.6 mph N/A   Clear
11:53 AM 54.0 °F - 10.9 °F 18% 30.02 in 10.0 mi West 29.9 mph 38.0 mph N/A   Clear
12:53 PM 55.0 °F - 12.9 °F 19% 30.00 in 10.0 mi West 25.3 mph 35.7 mph N/A   Clear
1:53 PM 57.0 °F - 12.0 °F 17% 30.00 in 10.0 mi West 18.4 mph 28.8 mph N/A   Clear
2:53 PM 57.0 °F - 12.0 °F 17% 30.02 in 10.0 mi SW 11.5 mph 23.0 mph N/A   Clear
3:53 PM 50.0 °F - 18.0 °F 28% 30.06 in 10.0 mi SSE 9.2 mph - N/A   Clear
4:53 PM 44.1 °F 39.5 °F 17.1 °F 34% 30.04 in 10.0 mi SSW 8.1 mph - N/A   Clear
5:53 PM 41.0 °F 35.8 °F 16.0 °F 36% 30.06 in 10.0 mi SW 8.1 mph - N/A   Clear
6:53 PM 39.0 °F 33.4 °F 17.1 °F 41% 30.04 in 10.0 mi WSW 8.1 mph - N/A   Clear
7:53 PM 37.9 °F - 17.1 °F 43% 30.03 in 10.0 mi Calm Calm - N/A   Clear
8:53 PM 33.1 °F - 17.1 °F 52% 30.05 in 10.0 mi Calm Calm - N/A   Clear
9:53 PM 32.0 °F 22.5 °F 17.1 °F 54% 30.02 in 10.0 mi West 12.7 mph - N/A   Clear
10:53 PM 30.9 °F 23.5 °F 17.1 °F 57% 29.99 in 10.0 mi West 8.1 mph - N/A   Clear
11:53 PM 32.0 °F 23.6 °F 17.1 °F 54% 29.96 in 10.0 mi West 10.4 mph - N/A   Clear